THORAD AGENA D DEB, 4158

Orbit data source: Space-Track

THORAD AGENA D DEB, 4158 is space debris in LEO originally from a launch on Tue, 30 Sep 1969 UTC launched from the Air Force Western Test Range (AFWTR). Debris objects in space refer to the collection of defunct objects orbiting the Earth. Examples of debris include non-operational satellites, rocket bodies, and fragments generated from explosions, collisions, or faulty payload assembly.

Loading next visibility...
Identifier
4158, 1969-082AA
Orbit
LEO
Country
Flag of USUS
Related business
Manufacturer
Unknown
Mission
Spacecraft
Bus & Motor
Unknown
Mass
Unknown
Launch date (UTC)
1969-09-30 (57 years ago)
Launch vehicle
Unknown
Launch site
Air Force Western Test Range (AFWTR)
Object type
Payload
Rocket body
Debris
Shape & HBR
Unknown shape, 0.3 m
Radar Cross Section
Medium (>0.1 m² and <1 m²)

Expand to show TLE details & history
Last TLE update: 19 hours ago

TLE from 19 hours ago
0 THORAD AGENA D DEB
1 04158U 69082AA  26173.59344653 -.00000018  00000-0  19641-4 0  9996
2 04158  70.0440 127.4031 0043034 177.9263 182.2039 14.13024661915459
Epoch: 2026-06-22T14:14Z
TLE epoch observation values (Epoch: 2026-06-22T14:14:33.780Z)
Latitude
0.00001°
Longitude
2.98522°
Altitude
882.457 km
Speed
7.395 km/s
True Right ascension
08h 29m 36s
True Declination
0° 00' 00"
Sunlit
Object was in daylight at epoch
Visualization orbit readout
Latitude
Unknown
Longitude
Unknown
Altitude
Unknown
Speed
Unknown
Apparent Right ascension
Unknown
Apparent Declination
Unknown
Sunlit
N/A
Visualization observer readout
Local Sidereal Time
19:55:09
Azimuth
Unknown
Elevation
Unknown
Doppler factor
Unknown
Orbital elements
Apogee altitude
878.155 km
Perigee altitude
815.97 km
Semi-major axis
7,225.199 km
Eccentricity
0.0043
Inclination
70.044°
RAAN
127.4031°
Arg. of periapsis
177.9263°
True anomaly
182.18504°
Mean anomaly
182.2039°
Eccentric anomaly
182.19446°
Mean motion
3.53402 °/min
Orbital period
101.87 mins
BSTAR
0.000019641

Documentation

Showing up to 5 results
|